| time (UTC) | temp C | wind direction | speed KPH | gust KPH | rain 1hr cm | rain 24hr cm | rain mn cm | humidity % | barometer mb |
| 20260507073001 | 9 | 0 | 1.6 | 1.6 | 0.00 | 0.03 | 0.03 | 87 | |
| 20260507072001 | 9 | 0 | 0.0 | 1.6 | 0.00 | 0.03 | 0.03 | 87 | |
| 20260507071001 | 9 | 0 | 0.0 | 0.0 | 0.00 | 0.03 | 0.03 | 87 | |
| 20260507070003 | 9 | 0 | 0.0 | 0.0 | 0.00 | 0.03 | 0.03 | 87 | |
| 20260507065001 | 9 | 0 | 0.0 | 0.0 | 0.00 | 0.03 | 0.03 | 87 | |
| 20260507064002 | 9 | 0 | 0.0 | 0.0 | 0.00 | 0.03 | 0.03 | 88 | |
| 20260507063001 | 9 | 0 | 1.6 | 1.6 | 0.00 | 0.03 | 0.03 | 88 | |
| 20260507062001 | 8 | 0 | 1.6 | 3.2 | 0.00 | 0.03 | 0.03 | 88 | |
| 20260507061001 | 8 | 0 | 4.8 | 17.7 | 0.00 | 0.03 | 0.03 | 88 | |
| 20260507060001 | 8 | 0 | 3.2 | 4.8 | 0.00 | 0.03 | 0.03 | 88 | |
| 20260507055001 | 8 | 0 | 1.6 | 3.2 | 0.00 | 0.03 | 0.03 | 88 | |
| 20260507054001 | 8 | 0 | 0.0 | 1.6 | 0.00 | 0.03 | 0.03 | 88 | |
| 20260507053001 | 8 | 0 | 0.0 | 0.0 | 0.00 | 0.03 | 0.03 | 89 | |
| 20260507052001 | 8 | 0 | 0.0 | 0.0 | 0.00 | 0.03 | 0.03 | 89 | |
| 20260507051005 | 8 | 0 | 0.0 | 0.0 | 0.00 | 0.03 | 0.03 | 89 | |
| 20260507050001 | 8 | 0 | 0.0 | 1.6 | 0.00 | 0.03 | 0.03 | 91 | |
| 20260507045001 | 8 | 0 | 0.0 | 0.0 | 0.00 | 0.05 | 0.03 | 91 | |
| 20260507044001 | 8 | 0 | 0.0 | 0.0 | 0.00 | 0.05 | 0.03 | 91 | |
| 20260507043006 | 8 | 0 | 0.0 | 0.0 | 0.00 | 0.05 | 0.03 | 91 | |
| 20260507042001 | 8 | 0 | 0.0 | 0.0 | 0.00 | 0.05 | 0.03 | 92 | |
| 20260507041001 | 8 | 0 | 0.0 | 0.0 | 0.00 | 0.05 | 0.03 | 92 | |
| 20260507040001 | 8 | 0 | 0.0 | 0.0 | 0.00 | 0.05 | 0.03 | 92 | |
| 20260507035001 | 8 | 0 | 1.6 | 1.6 | 0.00 | 0.05 | 0.03 | 92 | |
| 20260507034001 | 8 | 0 | 0.0 | 0.0 | 0.00 | 0.05 | 0.03 | 92 | |
| 20260507033003 | 8 | 0 | 0.0 | 0.0 | 0.00 | 0.05 | 0.03 | 92 | |
| 20260507032005 | 8 | 0 | 0.0 | 0.0 | 0.03 | 0.05 | 0.03 | 92 | |
| 20260507031002 | 8 | 0 | 0.0 | 0.0 | 0.03 | 0.05 | 0.03 | 92 | |
| 20260507030005 | 8 | 0 | 0.0 | 0.0 | 0.03 | 0.05 | 0.03 | 92 | |
| 20260507025001 | 8 | 0 | 0.0 | 0.0 | 0.03 | 0.05 | 0.03 | 92 | |
| 20260507024002 | 8 | 0 | 0.0 | 0.0 | 0.03 | 0.05 | 0.03 | 92 | |
| 20260507023002 | 8 | 0 | 0.0 | 0.0 | 0.03 | 0.10 | 0.03 | 92 | |
| 20260507022001 | 8 | 0 | 0.0 | 0.0 | 0.03 | 0.15 | 0.03 | 92 | |
| 20260507021001 | 9 | 0 | 0.0 | 0.0 | 0.00 | 0.13 | 0.00 | 92 | |
| 20260507020002 | 9 | 0 | 0.0 | 0.0 | 0.00 | 0.13 | 0.00 | 91 | |
| 20260507015002 | 9 | 0 | 0.0 | 0.0 | 0.00 | 0.13 | 0.00 | 91 | |
| 20260507014001 | 9 | 0 | 0.0 | 0.0 | 0.00 | 0.13 | 0.00 | 91 | |
| 20260507013002 | 9 | 0 | 0.0 | 0.0 | 0.00 | 0.13 | 0.00 | 89 | |
| 20260507012001 | 9 | 0 | 0.0 | 0.0 | 0.00 | 0.13 | 0.00 | 89 | |
| 20260507011001 | 9 | 0 | 0.0 | 0.0 | 0.00 | 0.15 | 0.00 | 89 | |
| 20260507010001 | 9 | 0 | 0.0 | 1.6 | 0.00 | 0.15 | 0.00 | 89 | |
| 20260507005001 | 9 | 0 | 0.0 | 1.6 | 0.00 | 0.15 | 0.00 | 88 | |
| 20260507004001 | 9 | 0 | 0.0 | 0.0 | 0.00 | 0.15 | 0.00 | 88 | |
| 20260507003001 | 9 | 0 | 0.0 | 1.6 | 0.00 | 0.15 | 0.00 | 87 | |
| 20260507002001 | 9 | 0 | 0.0 | 1.6 | 0.00 | 0.15 | 0.00 | 87 | |
| 20260507001001 | 9 | 0 | 0.0 | 0.0 | 0.00 | 0.15 | 0.00 | 87 | |
| 20260507000002 | 9 | 0 | 0.0 | 0.0 | 0.00 | 0.15 | 0.00 | 87 | |
| 20260506235002 | 9 | 0 | 0.0 | 1.6 | 0.00 | 0.15 | 0.00 | 86 | |
| 20260506234001 | 9 | 0 | 0.0 | 1.6 | 0.00 | 0.15 | 0.00 | 86 | |
| 20260506233001 | 9 | 0 | 0.0 | 0.0 | 0.00 | 0.15 | 0.00 | 86 | |
| 20260506232001 | 9 | 0 | 3.2 | 3.2 | 0.00 | 0.15 | 0.00 | 85 | |
| 20260506231001 | 9 | 0 | 3.2 | 3.2 | 0.00 | 0.15 | 0.00 | 85 | |
| 20260506230001 | 10 | 0 | 3.2 | 4.8 | 0.00 | 0.15 | 0.00 | 85 | |
| 20260506225003 | 10 | 0 | 0.0 | 1.6 | 0.00 | 0.15 | 0.00 | 85 | |
| 20260506224001 | 10 | 0 | 1.6 | 3.2 | 0.00 | 0.15 | 0.00 | 85 | |
| 20260506223001 | 10 | 0 | 0.0 | 0.0 | 0.00 | 0.15 | 0.00 | 85 | |
| 20260506222002 | 10 | 0 | 0.0 | 0.0 | 0.00 | 0.15 | 0.00 | 85 | |
| 20260506221009 | 10 | 0 | 0.0 | 0.0 | 0.00 | 0.15 | 0.00 | 85 | |
| 20260506220001 | 10 | 0 | 0.0 | 1.6 | 0.00 | 0.15 | 0.15 | 85 | |
| 20260506215004 | 10 | 0 | 0.0 | 0.0 | 0.00 | 0.15 | 0.15 | 85 | |
| 20260506214002 | 10 | 0 | 0.0 | 0.0 | 0.00 | 0.15 | 0.15 | 85 | |
| 20260506213002 | 10 | 0 | 0.0 | 0.0 | 0.00 | 0.18 | 0.15 | 85 | |
| 20260506212001 | 10 | 0 | 0.0 | 0.0 | 0.00 | 0.18 | 0.15 | 85 | |
| 20260506211001 | 10 | 0 | 0.0 | 0.0 | 0.00 | 0.30 | 0.15 | 85 | |
| 20260506210001 | 10 | 0 | 0.0 | 0.0 | 0.00 | 0.41 | 0.15 | 85 | |
| 20260506205001 | 10 | 0 | 0.0 | 0.0 | 0.00 | 0.43 | 0.15 | 85 | |
| 20260506204001 | 10 | 0 | 0.0 | 0.0 | 0.00 | 0.43 | 0.15 | 85 | |
| 20260506203001 | 10 | 0 | 0.0 | 0.0 | 0.00 | 0.43 | 0.15 | 85 | |
| 20260506202002 | 10 | 0 | 0.0 | 0.0 | 0.00 | 0.43 | 0.15 | 85 | |
| 20260506201002 | 11 | 0 | 0.0 | 0.0 | 0.00 | 0.43 | 0.15 | 85 | |
| 20260506200003 | 11 | 0 | 0.0 | 0.0 | 0.00 | 0.46 | 0.15 | 85 | |
| 20260506195001 | 11 | 0 | 0.0 | 0.0 | 0.00 | 0.46 | 0.15 | 85 | |
| 20260506194002 | 11 | 0 | 0.0 | 1.6 | 0.00 | 0.48 | 0.15 | 85 | |
| 20260506193002 | 11 | 0 | 0.0 | 1.6 | 0.00 | 0.51 | 0.15 | 85 | |
| 20260506192001 | 11 | 0 | 0.0 | 0.0 | 0.00 | 0.51 | 0.15 | 85 | |
| 20260506191001 | 11 | 0 | 0.0 | 0.0 | 0.00 | 0.53 | 0.15 | 86 | |
| 20260506190001 | 11 | 0 | 0.0 | 1.6 | 0.00 | 0.56 | 0.15 | 86 | |
| 20260506185002 | 11 | 0 | 0.0 | 1.6 | 0.00 | 0.56 | 0.15 | 86 | |
| 20260506184002 | 11 | 0 | 0.0 | 0.0 | 0.00 | 0.58 | 0.15 | 85 | |
| 20260506183001 | 12 | 0 | 0.0 | 1.6 | 0.00 | 0.58 | 0.15 | 84 | |
| 20260506182001 | 12 | 0 | 1.6 | 1.6 | 0.00 | 0.61 | 0.15 | 83 | |
| 20260506181001 | 12 | 0 | 1.6 | 3.2 | 0.00 | 0.64 | 0.15 | 83 | |
| 20260506180001 | 12 | 0 | 3.2 | 3.2 | 0.00 | 0.64 | 0.15 | 83 | |
| 20260506175003 | 12 | 0 | 3.2 | 4.8 | 0.00 | 0.64 | 0.15 | 84 | |
| 20260506173001 | 13 | 0 | 1.6 | 3.2 | 0.00 | 0.66 | 0.15 | 84 | |
| 20260506172001 | 13 | 0 | 1.6 | 4.8 | 0.00 | 0.66 | 0.15 | 84 | |
| 20260506171002 | 13 | 0 | 1.6 | 4.8 | 0.00 | 0.69 | 0.15 | 83 | |
| 20260506170001 | 13 | 0 | 3.2 | 3.2 | 0.00 | 0.71 | 0.15 | 83 | |
| 20260506165001 | 13 | 0 | 4.8 | 4.8 | 0.00 | 0.79 | 0.15 | 83 | |
| 20260506164002 | 13 | 0 | 3.2 | 4.8 | 0.00 | 0.94 | 0.15 | 83 | |
| 20260506163001 | 13 | 0 | 4.8 | 8.0 | 0.00 | 0.99 | 0.15 | 83 | |
| 20260506162002 | 13 | 0 | 32.2 | 40.2 | 0.00 | 1.12 | 0.15 | 83 | |
| 20260506161002 | 14 | 0 | 6.4 | 9.7 | 0.00 | 1.14 | 0.15 | 83 | |
| 20260506160001 | 14 | 0 | 3.2 | 4.8 | 0.00 | 1.14 | 0.15 | 84 | |
| 20260506155001 | 15 | 0 | 1.6 | 1.6 | 0.00 | 1.17 | 0.15 | 85 | |
| 20260506151001 | 15 | 0 | 1.6 | 1.6 | 0.00 | 1.17 | 0.15 | 86 | |
| 20260506150001 | 15 | 0 | 1.6 | 1.6 | 0.00 | 1.17 | 0.15 | 85 | |
| 20260506145002 | 15 | 0 | 1.6 | 3.2 | 0.00 | 1.17 | 0.15 | 86 | |
| 20260506144001 | 15 | 0 | 0.0 | 1.6 | 0.00 | 1.17 | 0.15 | 85 | |
| 20260506143001 | 14 | 0 | 0.0 | 1.6 | 0.00 | 1.17 | 0.15 | 85 | |
| 20260506142001 | 14 | 0 | 4.8 | 6.4 | 0.00 | 1.17 | 0.15 | 85 | |
| 20260506141001 | 14 | 0 | 6.4 | 11.3 | 0.00 | 1.17 | 0.15 | 82 | |
| 20260506140001 | 15 | 0 | 3.2 | 11.3 | 0.00 | 1.17 | 0.15 | 76 | |
| 20260506135002 | 15 | 0 | 1.6 | 3.2 | 0.00 | 1.17 | 0.15 | 75 | |
| 20260506134001 | 15 | 0 | 1.6 | 3.2 | 0.00 | 1.17 | 0.15 | 75 | |
| 20260506133002 | 15 | 0 | 1.6 | 3.2 | 0.00 | 1.17 | 0.15 | 75 | |
| 20260506132001 | 15 | 0 | 1.6 | 1.6 | 0.00 | 1.17 | 0.15 | 76 | |
| 20260506131001 | 16 | 0 | 0.0 | 1.6 | 0.00 | 1.17 | 0.15 | 74 | |
| 20260506130001 | 16 | 0 | 1.6 | 1.6 | 0.00 | 1.17 | 0.15 | 74 | |
| 20260506125001 | 16 | 0 | 1.6 | 3.2 | 0.00 | 1.17 | 0.15 | 73 | |
| 20260506124001 | 16 | 0 | 0.0 | 0.0 | 0.00 | 1.17 | 0.15 | 71 | |
| 20260506123002 | 16 | 0 | 0.0 | 0.0 | 0.00 | 1.17 | 0.15 | 71 | |
| 20260506122001 | 17 | 0 | 0.0 | 0.0 | 0.00 | 1.17 | 0.15 | 74 | |
| 20260506121001 | 16 | 0 | 0.0 | 0.0 | 0.00 | 1.17 | 0.15 | 76 | |
| 20260506120001 | 15 | 0 | 0.0 | 0.0 | 0.00 | 1.17 | 0.15 | 78 | |
| 20260506115002 | 14 | 0 | 0.0 | 0.0 | 0.00 | 1.17 | 0.15 | 79 | |
| 20260506114002 | 14 | 0 | 0.0 | 0.0 | 0.00 | 1.17 | 0.15 | 78 | |
| 20260506113001 | 15 | 0 | 0.0 | 0.0 | 0.00 | 1.17 | 0.15 | 77 | |
| 20260506112001 | 15 | 0 | 0.0 | 1.6 | 0.00 | 1.17 | 0.15 | 77 | |
| 20260506111001 | 15 | 0 | 0.0 | 0.0 | 0.00 | 1.17 | 0.15 | 76 | |
| 20260506110004 | 15 | 0 | 0.0 | 1.6 | 0.00 | 1.17 | 0.15 | 76 | |
| 20260506105002 | 15 | 0 | 1.6 | 1.6 | 0.00 | 1.17 | 0.15 | 77 | |
| 20260506104005 | 15 | 0 | 0.0 | 0.0 | 0.00 | 1.17 | 0.15 | 77 | |
| 20260506103001 | 15 | 0 | 0.0 | 0.0 | 0.00 | 1.17 | 0.15 | 78 | |
| 20260506102001 | 15 | 0 | 0.0 | 1.6 | 0.00 | 1.17 | 0.15 | 79 | |
| 20260506101001 | 15 | 0 | 0.0 | 0.0 | 0.00 | 1.17 | 0.15 | 80 | |
| 20260506100001 | 15 | 0 | 0.0 | 0.0 | 0.00 | 1.17 | 0.15 | 80 | |
| 20260506095001 | 15 | 0 | 1.6 | 1.6 | 0.00 | 1.17 | 0.15 | 79 | |
| 20260506094002 | 15 | 0 | 0.0 | 0.0 | 0.00 | 1.17 | 0.15 | 79 | |
| 20260506093001 | 15 | 0 | 0.0 | 0.0 | 0.00 | 1.17 | 0.15 | 80 | |
| 20260506092001 | 15 | 0 | 0.0 | 0.0 | 0.00 | 1.17 | 0.15 | 83 | |
| 20260506091001 | 14 | 0 | 1.6 | 3.2 | 0.00 | 1.17 | 0.15 | 83 | |
| 20260506090001 | 14 | 0 | 0.0 | 0.0 | 0.00 | 1.17 | 0.15 | 83 | |
| 20260506085001 | 14 | 0 | 0.0 | 1.6 | 0.00 | 1.17 | 0.15 | 84 | |
| 20260506084001 | 14 | 0 | 0.0 | 1.6 | 0.00 | 1.17 | 0.15 | 84 | |
| 20260506083001 | 14 | 0 | 1.6 | 1.6 | 0.00 | 1.17 | 0.15 | 85 | |
| 20260506082001 | 14 | 0 | 1.6 | 3.2 | 0.00 | 1.17 | 0.15 | 85 | |
| 20260506081001 | 14 | 0 | 1.6 | 3.2 | 0.00 | 1.17 | 0.15 | 86 |